Location: Trebic
(49.2170°N, 15.8830°E)
Time: 22:18:28
(UTC+02:00)

ISS - Pass Details

Date: 29 March 2019
Orbit: 408 x 410 km, 51.6° (Epoch: 21 April)

Event Time Altitude Azimuth Distance (km) Brightness Sun altitude
Rises 21:41:35 0° 289° (WNW) 2,338 0.9 -29.2°
Reaches altitude 10° 21:43:41 10° 288° (WNW) 1,474 -0.3 -29.4°
Enters shadow 21:43:56 12° 287° (WNW) 1,371 -0.5 -29.5°
